Jogging Pour Tous
Remonter

24ème Edition des Boucles Du Djale

Samedi 21 mars 2009

Course A - 1,8 km

Course B - 3,6 km

Course C - 10 km

Course A - 1,8 km
Position Dossard Nom Prénom Temps Moyenne horaire Temps au km
1 501 DA SILVA LUCAS 00:06:51 15766 03:48
2 525 MAKA TANGUY 00:07:02 15355 03:54
3 509 PERRIER CHARLES 00:07:05 15247 03:56
4 481 ZULIANI ALEXANDRE 00:07:07 15176 03:57
5 862 CARNOL LAURA 00:07:10 15070 03:59
6 485 RUTH TOM 00:07:13 14965 04:01
7 252 LESUISSE BENJAMIN 00:07:14 14931 04:01
8 571 DECOCQ THOMAS 00:07:23 14628 04:06
9 513 AJMI HICHEM 00:07:25 14562 04:07
10 127 GERITS LOIC 00:07:26 14529 04:08
11 490 LHEUREUX LAURIE 00:07:28 14464 04:09
12 1455 DEBOUGNOUX VALENTINE 00:07:30 14400 04:10
13 1451 MAES MARINE 00:07:31 14368 04:11
14 495 MATHIEU CAMILLE 00:07:40 14087 04:16
15 164 DEMONTY NICOLAS 00:07:46 13906 04:19
16 1221 CUSTINNE ROMAIN 00:07:48 13846 04:20
17 7 CARNOL MARIE 00:07:52 13729 04:22
18 8 CLASSE ELODIE 00:07:56 13613 04:24
19 1223 FLAMENT JOY 00:07:58 13556 04:26
20 66 HOCK COLINE 00:07:59 13528 04:26
21 579 SPELGATTI ANDREA 00:08:01 13472 04:27
22 9 ORTEGA ELOINE 00:08:03 13416 04:28
23 1459 DERKENNE MARY 00:08:04 13388 04:29
24 1233 JOCKIN NICOLAS 00:08:06 13333 04:30
25 270 PETITNIOT VALENTIN 00:08:07 13306 04:31
26 1460 LASSINE CAMILLE 00:08:08 13279 04:31
27 19 BAUMANS LAURE 00:08:09 13252 04:32
28 1204 NEUFCOUR CELINE 00:08:12 13171 04:33
29 488 DECHAMPS EMELIE 00:08:19 12986 04:37
30 1457 DEMEY SASHA 00:08:21 12934 04:38
31 1479 ROSSI JOSHUA 00:08:22 12908 04:39
32 26 CENNE ODILE 00:08:30 12706 04:43
33 505 D HOEY JEREMY 00:08:44 12366 04:51
34 97 THIRION PIERRE 00:08:47 12296 04:53
35 1244 LIBAN JEROME 00:08:48 12273 04:53
36 572 HOETERS DILHAN 00:08:50 12226 04:54
37 512 WILMET JADE 00:08:51 12203 04:55
38 1473 LEFEVRE MEGANE 00:08:53 12158 04:56
39 508 THIRY ALICIA 00:08:56 12090 04:58
40 578 CLASSE ANTHONY 00:08:58 12045 04:59
41 1387 DEWEZ LAURA 00:09:03 11934 05:02
42 840 MATHIEU JULIE 00:09:04 11912 05:02
43 152 LENOM MARGOT 00:09:06 11868 05:03
44 1238 DOTEL NATHAN 00:09:07 11846 05:04
45 16 DANIELS ROSE 00:09:22 11530 05:12
46 1219 BONHOMME SOREN 00:09:23 11510 05:13
47 1245 BATAIS SARA 00:09:36 11250 05:20
48 923 AITABBOU YOUSSEF 00:09:37 11231 05:21
49 1224 CRECES YOURI 00:09:50 10983 05:28
50 1466 DA SILVA THOMAS 00:09:52 10946 05:29
51 523 FRISSCHEM GILLES 00:09:53 10927 05:29
52 267 WILKIN CHRISTEL 00:09:58 10836 05:32
53 1210 DEPAS MARINE 00:10:06 10693 05:37
54 524 FRISSCHEM LIAM 00:10:14 10554 05:41
55 964 JOBE ROMANE 00:10:23 10401 05:46
56 1004 LEJEUNE SHAMIA 00:10:25 10368 05:47
57 1235 CHABABE ELAIS 00:10:27 10335 05:48
58 72 VAN DER HEYDEN AUBRY 00:10:35 10205 05:53
59 1452 DECHAMPS ALICIA 00:10:44 10062 05:58
60 1239 VANDEBROECK TANGUY 00:10:48 10000 06:00
61 1468 CLOES CELYA 00:10:57 9863 06:05
62 1453 THIRY CLARA 00:10:59 9833 06:06
63 1480 MAURISSEN ANNA 00:11:11 9657 06:13
64 1230 HALKIN GABRIELLE 00:11:14 9614 06:14
65 1240 WIJNEN THOMAS 00:11:16 9586 06:16
66 740 HILDERSON LIZA 00:11:38 9284 06:28
67 493 D ATTARDI DUNIA 00:11:49 9140 06:34
68 1241 WIJNEN EMELINE 00:11:54 9076 06:37
69 1232 RASQUIN TOM 00:12:08 8901 06:44
70 1231 SOOLS AMANDINE 00:12:08 8901 06:44
71 519 LEGROS NOEMIE 00:12:19 8769 06:51
72 1471 REFANO ELSA 00:13:11 8192 07:19
73 1211 DEPAS MAELLE 00:15:07 7144 08:24
 
Course B - 3,6 km
Position Dossard Nom Prénom Temps Moyenne horaire Temps au km
1 543 VANDERPLANCKE ERWAN 00:13:02 16573 03:37
2 2 DELVENNE THIBAUT 00:13:29 16020 03:45
3 1214 DUPONT JAN 00:13:29 16020 03:45
4 1467 SCIVOLETTO ALEXANDRE 00:13:39 15824 03:48
5 1456 DEBOUGNOUX LOIC 00:13:46 15690 03:49
6 113 JAMINON NICOLAS 00:14:11 15229 03:56
7 1248 WANAT FREDERIC 00:14:12 15211 03:57
8 930 FARES TARILE 00:14:15 15158 03:57
9 467 MAIER GEROME 00:14:18 15105 03:58
10 473 CLASSE JEREMY 00:14:20 15070 03:59
11 1090 FIDANZA MARINE 00:14:23 15017 04:00
12 119 WINTGENS JOHAN 00:14:25 14983 04:00
13 1513 COLSON PIERRE 00:14:32 14862 04:02
14 468 TOUSSAINT THIBAUT 00:14:34 14828 04:03
15 1234 TANTIMONACO ANTOINE 00:14:36 14795 04:03
16 1084 JOCKIN FRANCOIS 00:14:39 14744 04:04
17 1247 HEREMANS JULIEN 00:14:47 14611 04:06
18 126 CHARLIER ELINE 00:14:53 14513 04:08
19 61 HOCK ALLISON 00:14:59 14416 04:10
20 1213 GERITS ARNAUD 00:15:17 14133 04:15
21 1450 JEHAES FLORENCE 00:15:23 14041 04:16
22 1462 POHL ESTELLE 00:15:41 13773 04:21
23 924 DELCOMMUNE PIERRE 00:16:01 13486 04:27
24 1097 DENIS THIBAUD 00:16:03 13458 04:28
25 1096 POUWELS MARIE 00:16:06 13416 04:28
26 129 CENNE MATHILDE 00:16:08 13388 04:29
27 251 LESUISSE MARTIN 00:16:21 13211 04:32
28 118 DANIELS TOM 00:16:28 13117 04:34
29 1095 DENIS PASCALINE 00:16:31 13078 04:35
30 1218 ROCOUR MATHILDE 00:16:33 13051 04:36
31 1565 RENARD LOIC 00:16:44 12908 04:39
32 927 EL KABOUZZI IKRAME 00:16:47 12870 04:40
33 1217 HANSE FANY 00:16:49 12844 04:40
34 1216 CORTIS LAURA 00:16:50 12832 04:41
35 1465 SCHNEYDERS NATHAN 00:17:01 12693 04:44
36 925 LOGNOUL EMILIE 00:17:07 12619 04:45
37 463 THIRY JEAN 00:17:13 12546 04:47
38 456 FERON NATAN 00:17:18 12486 04:48
39 1477 DENIS ELODIE 00:17:31 12331 04:52
40 1098 DENIS GUY 00:17:34 12296 04:53
41 1475 WAUTHIER LUCAS 00:17:37 12261 04:54
42 926 AIT ABBOU ISMAEL 00:17:40 12226 04:54
43 1212 LOGNOUL JOHANN 00:17:48 12135 04:57
44 1390 DONNAY J GILLES 00:18:15 11836 05:04
45 1207 DERKENNE MEGHAN 00:18:16 11825 05:04
46 465 QUEVRIN PAULINE 00:18:21 11771 05:06
47 1208 DERKENNE LOLA 00:18:27 11707 05:07
48 1236 CHABABE ELYNA 00:18:46 11510 05:13
49 1474 BOYNE ARNAUD 00:19:02 11349 05:17
50 1215 BAUMANS ELODIE 00:19:40 10983 05:28
51 82 D HOEY MADISON 00:19:49 10900 05:30
52 68 VAN DER HEYDEN WENDY 00:20:44 10418 05:46
53 1508 GENDARME NINE 00:21:39 9977 06:01
54 518 LEGROS AXEL 00:22:22 9657 06:13
55 1205 THEWISSEN CLARA 00:22:23 9650 06:13
56 1400 COURTOY ANNE PASCALE 00:23:10 9324 06:26
57 1395 GERARDY ANNICK 00:23:15 9290 06:28
58 1246 DEWAELSCHE CHRISTIANE 00:23:34 9165 06:33
59 1391 ENGELBORGHS HELENE 00:23:40 9127 06:34
60 1415 GURNY OLIVIER 00:23:49 9069 06:37
61 1414 MACHIELS DAISY 00:26:29 8156 07:21
62 101 RACOUX DANIELE 00:29:52 7232 08:18
 
Course C - 10 km
Position Dossard Nom Prénom Temps Moyenne horaire Temps au km
1 81 MOHON KEVIN 00:33:39 17831 03:22
2 1 PHILIPPE PATRICK 00:33:43 17795 03:22
3 318 HEINS RAPHAEL 00:34:08 17578 03:25
4 1447 BOUKRINIAA ABDEL 00:34:13 17535 03:25
5 420 HEMELAERS LAURENT 00:34:21 17467 03:26
6 695 VERVIER CHRISTOPHE 00:34:43 17283 03:28
7 6 DUSART VINCENT 00:34:50 17225 03:29
8 1518 IERACE RICHARD 00:35:04 17110 03:30
9 1418 DETRIXHE MICHAEL 00:35:16 17013 03:32
10 1201 COMPERE BRICE 00:35:41 16815 03:34
11 798 REYNERS PATRICK 00:35:55 16705 03:35
12 67 LOGNOUL FABIEN 00:36:00 16667 03:36
13 352 EVRARD J-P 00:36:05 16628 03:37
14 1566 HENRARD RENE 00:36:08 16605 03:37
15 1345 ESSABRI NASSER 00:36:13 16567 03:37
16 687 FRANSSEN DAVID 00:36:19 16521 03:38
17 125 CANISIUS PIERRE OLIVIER 00:36:22 16499 03:38
18 1530 VAESEN BENOIT 00:36:25 16476 03:39
19 59 LEPOINT FRANCOIS 00:36:27 16461 03:39
20 1397 BEUKEN SERGE 00:36:34 16408 03:39
21 1579 FREMALLE BENOIT 00:36:47 16312 03:41
22 1586 VENTURELLI DOMINIQUE 00:36:48 16304 03:41
23 419 WILLAIN BENOIT 00:36:51 16282 03:41
24 1422 DATTOLI MATTEO 00:36:58 16231 03:42
25 361 CLASSE GREGORY 00:37:03 16194 03:42
26 13 PANARIELLO FABIAN 00:37:15 16107 03:44
27 1507 DE NEVE PIETER 00:37:17 16093 03:44
28 1182 BRAGARD J FRANCOIS 00:37:19 16079 03:44
29 1581 SINDIC BENOIT 00:37:21 16064 03:44
30 598 BOLLEN PASCAL 00:37:24 16043 03:44
31 297 DEMIRCI KENAN 00:37:34 15972 03:45
32 611 WOOLF ALAIN 00:37:40 15929 03:46
33 875 PATUREAU ERIC 00:37:43 15908 03:46
34 111 CABO REGUERA FRANCISCO 00:37:54 15831 03:47
35 1486 HUYNEN RONNY 00:37:59 15796 03:48
36 121 VAN EMELEN GILLES 00:38:01 15783 03:48
37 1421 VANDENBLINK ERIC 00:38:06 15748 03:49
38 158 PLUNUS ALAIN 00:38:11 15714 03:49
39 231 WILLEMS ROBERT 00:38:14 15693 03:49
40 1540 VAN ZOELEN JEROEN 00:38:17 15673 03:50
41 427 SELERIN PASCAL 00:38:19 15659 03:50
42 313 RASIER PATRICK 00:38:21 15645 03:50
43 1190 DEWALLEF PASCAL 00:38:25 15618 03:50
44 65 BAILLY LUC 00:38:27 15605 03:51
45 558 BERGENHUIZEN EDDY 00:38:29 15591 03:51
46 182 RAPAGNA TONI 00:38:30 15584 03:51
47 1571 CARLIER OLIVIER 00:38:32 15571 03:51
48 1237 CHABABE EFRAIM 00:38:36 15544 03:52
49 827 SANGIOVANNI J CHARLES 00:38:39 15524 03:52
50 57 PIERLOT AUDREY 00:38:41 15511 03:52
51 692 MESTREZ ERIC 00:38:44 15491 03:52
52 108 BUCKINX ETIENNE 00:38:47 15471 03:53
53 1074 PAROTTE CHRISTOPHE 00:38:48 15464 03:53
54 1398 BEUKEN DIDIER 00:38:51 15444 03:53
55 131 CERFONTAINE MICHAEL 00:38:52 15437 03:53
56 1578 ESSER OLIVIER 00:38:54 15424 03:53
57 1251 PAWELKOWSKI DAVID 00:38:57 15404 03:54
58 822 LAVEN LOTHAR 00:38:59 15391 03:54
59 394 DASILVA TONY 00:39:10 15319 03:55
60 247 BETHUME BERNARD 00:39:12 15306 03:55
61 1512 BASTIN SAMUEL 00:39:13 15300 03:55
62 1517 BALANCIER BORIS 00:39:19 15261 03:56
63 294 LENAERS CHARLES 00:39:22 15241 03:56
64 724 BLEROT DIDIER 00:39:25 15222 03:56
65 1149 LANGER ERIC 00:39:27 15209 03:57
66 1044 PARDO GARCIA JUAN 00:39:30 15190 03:57
67 691 BALANCIER SARAH 00:39:31 15183 03:57
68 269 BALSAN LUC 00:39:33 15171 03:57
69 306 WINTGENS CHANTAL 00:39:34 15164 03:57
70 305 CORMANN BERND 00:39:38 15139 03:58
71 !71 DOSSARD NON VISIBLE 00:39:45 15094 03:59
72 328 DEPAS RENE 00:39:48 15075 03:59
73 1202 VANDEVENNE CHRISTIAN 00:39:50 15063 03:59
74 390 LANGER THIERRY 00:39:51 15056 03:59
75 33 MARTIN ERIC 00:39:53 15044 03:59
76 819 BONSIGNORE ALEXANDRE 00:39:59 15006 04:00
77 1108 MASSOT JEAN-PIERRE 00:40:14 14913 04:01
78 635 JORIS LIONEL 00:40:17 14894 04:02
79 209 TRAUDI KAMEL 00:40:21 14870 04:02
80 23 KRINGS VIKTOR 00:40:23 14858 04:02
81 436 VANDENBROUCK STEPHAN 00:40:30 14815 04:03
82 1107 WAERTS ALAIN 00:40:34 14790 04:03
83 276 RIMON PAUL 00:40:36 14778 04:04
84 203 BAUMANS HUGHES 00:40:38 14766 04:04
85 293 HELSEN PHILIPPE 00:40:39 14760 04:04
86 639 APPERMANS ALAIN 00:40:44 14730 04:04
87 383 ISER LUC 00:40:48 14706 04:05
88 837 PIRSON STEPHANE 00:40:51 14688 04:05
89 1516 SURINX JOS 00:40:54 14670 04:05
90 1133 HERMANS MARC 00:40:56 14658 04:06
91 725 PIQUERAY STEPHANE 00:41:00 14634 04:06
92 46 LAMBOTTE STEPHAN 00:41:01 14628 04:06
93 1229 TILKIN JULIEN 00:41:02 14622 04:06
94 161 FAVEYTS JEAN MARC 00:41:07 14593 04:07
95 266 COURARD DIDIER 00:41:09 14581 04:07
96 1250 CARLIER FRANCOIS 00:41:11 14569 04:07
97 781 ESSABRI AL 00:41:13 14557 04:07
98 696 LAMBERTY HELORI 00:41:15 14545 04:07
99 274 LEHEUREUX OLIVIER 00:41:17 14534 04:08
100 92 BIELEN MICHEL 00:41:22 14504 04:08
101 11 LEONARD MARIE-EVE 00:41:23 14499 04:08
102 5 MATHOT RICHARD 00:41:26 14481 04:09
103 801 LYCOPS MICHAEL 00:41:28 14469 04:09
104 610 LEDOUX LUC 00:41:30 14458 04:09
105 1501 MASSA ALBERT 00:41:32 14446 04:09
106 296 CROISSIAUX FABRICE 00:41:39 14406 04:10
107 853 LUCIC STEPHANE 00:41:41 14394 04:10
108 69 JULIN PASCAL 00:41:44 14377 04:10
109 971 DEFOURNY DOMINIQUE 00:41:45 14371 04:10
110 304 THIESSENS GERARD 00:41:46 14366 04:11
111 162 DOSSERAY ROGER 00:41:49 14348 04:11
112 242 ROELANDT PHILIPPE 00:41:52 14331 04:11
113 141 STICCA NICOLA 00:41:55 14314 04:12
114 780 CHABABE LARBI 00:41:57 14303 04:12
115 240 BRISY PHILIPPE 00:41:58 14297 04:12
116 105 HAMES LAURENT 00:41:59 14291 04:12
117 442 DELNEUVILLE PHILIPPE 00:42:01 14280 04:12
118 55 BAWIN REGIS 00:42:03 14269 04:12
119 1575 FAUVILLE XAVIER 00:42:10 14229 04:13
120 410 WAGELMANS CLARISSE 00:42:12 14218 04:13
121 565 ALEXANDRE CHRISTOPHE 00:42:16 14196 04:14
122 1534 CHRISTIAENS MICKY 00:42:20 14173 04:14
123 1514 MAURISSEN HERVE 00:42:22 14162 04:14
124 411 THONNARD JEAN-YVES 00:42:23 14157 04:14
125 731 VAN KRANENBURG JOS 00:42:25 14145 04:15
126 1187 DELNEUVILLE ERIC 00:42:26 14140 04:15
127 377 LOSADO PIETRO 00:42:29 14123 04:15
128 1524 DAUBY BENOIT 00:42:31 14112 04:15
129 1526 BOUR J PAUL 00:42:32 14107 04:15
130 243 LEMAIRE MICHEL 00:42:34 14096 04:15
131 805 WERGIFOSSE JACKY 00:42:37 14079 04:16
132 170 VOSS JEAN LOUIS 00:42:40 14063 04:16
133 1365 SAUSSEZ MICHEL 00:42:43 14046 04:16
134 365 VROMEN PIERRE YVES 00:42:48 14019 04:17
135 450 DULAR PATRICK 00:42:51 14002 04:17
136 1574 POUMAY FRANCIS 00:42:53 13991 04:17
137 200 DANIELS JEAN-MARC 00:42:55 13981 04:17
138 644 LOPEZ CELSO 00:42:57 13970 04:18
139 223 LACROIX RUDY 00:43:02 13943 04:18
140 1203 VILLERS YANNICK 00:43:03 13937 04:18
141 642 NAISSE ERIC 00:43:05 13926 04:19
142 405 CREMER PATRICK 00:43:10 13900 04:19
143 1573 DAKHTAR SAMIR 00:43:12 13889 04:19
144 566 MORENO MANUEL 00:43:14 13878 04:19
145 1458 GUCKEL IRWIN 00:43:18 13857 04:20
146 138 SERVAIS DAVID 00:43:23 13830 04:20
147 529 ROUFOSSE JOEFFREY 00:43:26 13814 04:21
148 1226 BOONEN MICHEL 00:43:28 13804 04:21
149 718 SKUPIEWSKI GREGORY 00:43:30 13793 04:21
150 176 HILDERSON LUC 00:43:31 13788 04:21
151 51 FREDERICH DOMINIQUE 00:43:32 13783 04:21
152 1478 NICOLAS FRANCIS 00:43:37 13756 04:22
153 1427 RIGA PHILIPPE 00:43:38 13751 04:22
154 326 BRIAN MICHEL 00:43:39 13746 04:22
155 31 DAMHAUT MICKAEL 00:43:40 13740 04:22
156 567 SCHRODER RAPHAEL 00:43:42 13730 04:22
157 368 IMMERIX JEAN-P 00:43:44 13720 04:22
158 60 HOCK BERNARD 00:43:51 13683 04:23
159 1423 VANHEUSDEN THOMAS 00:43:52 13678 04:23
160 1503 SCHMITZ DOMINIQUE 00:43:56 13657 04:24
161 63 THIRION ALAIN 00:44:01 13631 04:24
162 821 DESSART J LUC 00:44:03 13621 04:24
163 30 MOXHET NICOLAS 00:44:05 13611 04:25
164 791 CHARBON LAURENT 00:44:07 13600 04:25
165 703 DARDENNE PIERRE YVES 00:44:10 13585 04:25
166 532 COLLARD DAVID 00:44:12 13575 04:25
167 647 DUFRASNE J PIERRE 00:44:17 13549 04:26
168 891 HENRY RICHARD 00:44:19 13539 04:26
169 228 EVRARD MARC 00:44:23 13519 04:26
170 225 GARIN YVES 00:44:24 13514 04:26
171 1399 VERNIERS LUC 00:44:25 13508 04:26
172 1631 MARTIN THOMAS 00:44:33 13468 04:27
173 631 GAIN PATRICK 00:44:35 13458 04:28
174 234 D ATTARDI OLIVIER 00:44:39 13438 04:28
175 1476 KIEFFER J CHRISTOPHE 00:44:40 13433 04:28
176 1286 DUCHATEAU MICKAEL 00:44:42 13423 04:28
177 1632 IOWA PIERRE 00:44:47 13398 04:29
178 94 DACOS PATRICK 00:44:50 13383 04:29
179 888 BOLSEE J CHRISTOPHE 00:44:57 13348 04:30
180 710 BERTONI JOEL 00:45:00 13333 04:30
181 1053 JOCKIN CLAUDE 00:45:02 13323 04:30
182 130 PIERRE FREDERIC 00:45:06 13304 04:31
183 378 LODOMEZ OLIVIER 00:45:09 13289 04:31
184 1499 BEFAHY FABIA 00:45:14 13265 04:31
185 1463 DERKENNE OLIVIER 00:45:15 13260 04:31
186 1428 TOUSSAINT ALAIN 00:45:18 13245 04:32
187 239 BECKERS MARC 00:45:19 13240 04:32
188 794 BADENBERG BERNARD 00:45:24 13216 04:32
189 224 MATTERN BERTI 00:45:26 13206 04:33
190 834 RONKART PHILIPPE 00:45:29 13192 04:33
191 205 CENNE YVES 00:45:31 13182 04:33
192 1337 BONTEMPI JEREMIE 00:45:38 13148 04:34
193 95 DUFOUR RENE 00:45:39 13143 04:34
194 1145 BEYER BRUNO 00:45:41 13134 04:34
195 612 HOUSSET FRANCIS 00:45:49 13096 04:35
196 215 DAMAN FRANCOIS 00:45:51 13086 04:35
197 850 JOSIS NICOLAS 00:45:52 13081 04:35
198 386 DE SIMONE ROBERTO 00:45:56 13062 04:36
199 1510 THEUNISSEN THIERRY 00:46:01 13039 04:36
200 149 LEMOINE MICHEL 00:46:09 13001 04:37
201 1547 VANHEIF ARNAUD 00:46:14 12978 04:37
202 750 HONORE ALAIN 00:46:17 12964 04:38
203 302 SIMON BRUNO 00:46:19 12954 04:38
204 1600 EVRARD ALAIN 00:46:21 12945 04:38
205 765 HERTOGEN WILLY 00:46:26 12922 04:39
206 849 WESPHAEL EVELYNE 00:46:28 12912 04:39
207 230 LECLERCQ PIERRE 00:46:33 12889 04:39
208 347 WILLEM BERNARD 00:46:39 12862 04:40
209 726 BRENNECKE DAVID 00:46:43 12843 04:40
210 418 DION ROGER 00:46:44 12839 04:40
211 719 COLLINS JULIEN 00:46:46 12830 04:41
212 1597 WARNIER BRUNO 00:46:47 12825 04:41
213 1520 GUARINO TONY 00:46:49 12816 04:41
214 75 BERGENHOUSE JOEL 00:46:51 12807 04:41
215 1519 COLSON MARC 00:46:53 12798 04:41
216 1544 JOLIS THEO 00:46:58 12775 04:42
217 449 LESECQUE STEPHANE 00:47:02 12757 04:42
218 1549 MOTTARD CHRISTOPHE 00:47:04 12748 04:42
219 595 GADEA RAMON 00:47:09 12725 04:43
220 638 CORDIER CHRISTINE 00:47:11 12716 04:43
221 140 HADJIDIMITRIOU STELIO 00:47:12 12712 04:43
222 250 DELHEZ MARCEL 00:47:15 12698 04:44
223 1551 LAZZARI TONY 00:47:18 12685 04:44
224 1176 RENARD VIVIANE 00:47:20 12676 04:44
225 531 MESTRE J FRANCOIS 00:47:23 12663 04:44
226 1568 BAZERQUE MARCELINE 00:47:25 12654 04:45
227 1577 BRENNENRAEDTS GEOFFREY 00:47:27 12645 04:45
228 349 WATRIN BRUNO 00:47:31 12627 04:45
229 1470 JIMENEZ GABRIEL 00:47:36 12605 04:46
230 1562 PARTOENS ANNEMIE 00:47:47 12557 04:47
231 1561 VOS GERT 00:47:48 12552 04:47
232 1505 BULTE HARRY 00:47:52 12535 04:47
233 1533 DELVAUX J FRANCOIS 00:47:55 12522 04:47
234 197 VAN DER HEYDEN ERIC 00:47:56 12517 04:48
235 391 DARCIS JEROME 00:47:58 12509 04:48
236 15 VANKERKHOVEN MARTIN 00:47:59 12504 04:48
237 1543 LEONE PASCAL 00:48:01 12496 04:48
238 1102 BONHOMME FREDDY 00:48:03 12487 04:48
239 1105 DUPUIS THOMAS 00:48:06 12474 04:49
240 629 NAGELS ALAIN 00:48:08 12465 04:49
241 605 CAPRACE RENE 00:48:12 12448 04:49
242 330 BOLOGNE J PHILIPPE 00:48:13 12444 04:49
243 350 COLLIGNON FREDERIC 00:48:15 12435 04:50
244 123 PISCART FRANCOISE 00:48:19 12418 04:50
245 1587 LE THANH TINH 00:48:21 12410 04:50
246 1280 GODELAINE FREDDY 00:48:24 12397 04:50
247 1317 LARMINIER CLAUDE 00:48:26 12388 04:51
248 841 CHARNEUX PIERRE 00:48:29 12375 04:51
249 1583 GUCKEL BRUNO 00:48:31 12367 04:51
250 661 MANCINI MICHEL 00:48:32 12363 04:51
251 195 PHILIPPART RALPH 00:48:36 12346 04:52
252 1392 SCHALENBOURG OLIVIER 00:48:39 12333 04:52
253 538 SCHIEPERS BENOIT 00:48:41 12325 04:52
254 1591 DE MARTELAER QUENTIN 00:48:45 12308 04:52
255 608 DOYEN HUBERT 00:48:51 12282 04:53
256 163 SCHOONBROODT LEON 00:48:55 12266 04:54
257 709 THEUNISSEN CLAUDE 00:48:57 12257 04:54
258 34 ERNST ANDRE 00:48:59 12249 04:54
259 344 SMETS J-MARIE 00:49:01 12241 04:54
260 428 VOLON PATRICK 00:49:07 12216 04:55
261 1628 SCHLEMMER EGIDE 00:49:09 12208 04:55
262 832 NOKIN CHRISTIAN 00:49:10 12203 04:55
263 322 ROBERTI HENRI 00:49:14 12187 04:55
264 773 HURLET BERNARD 00:49:16 12179 04:56
265 1563 KERF PATRICK 00:49:18 12170 04:56
266 1225 MARX BENOIT 00:49:27 12133 04:57
267 434 HOUARI EL BOUKAY 00:49:32 12113 04:57
268 220 THONNARD MARC 00:49:34 12105 04:57
269 1589 VESTRAETEN BRIAN 00:49:36 12097 04:58
270 1481 HEYNS XAVIER 00:49:39 12085 04:58
271 71 VERHELLE VERONIQUE 00:49:40 12081 04:58
272 91 MOHON BRANDON 00:49:43 12068 04:58
273 1424 COLIN THIERRY 00:49:44 12064 04:58
274 1051 TROTTA LAURA 00:49:45 12060 04:59
275 1576 HAEKENS J MARIE 00:49:47 12052 04:59
276 1546 LENNERTS SEBASTIEN 00:49:50 12040 04:59
277 1393 SPEECART ANTHONY 00:49:52 12032 04:59
278 301 MULS ANNE 00:49:56 12016 05:00
279 28 FANARA PASCAL 00:49:59 12004 05:00
280 280 NICASSIO VANESSA 00:50:01 11996 05:00
281 272 PIRONT BRIGITTE 00:50:04 11984 05:00
282 1569 BOLAND MELANIE 00:50:05 11980 05:00
283 371 GERARD DENIS 00:50:15 11940 05:01
284 1489 JONLET CHRISTIAN 00:50:17 11932 05:02
285 218 ROLLIN JEAN LOUIS 00:50:20 11921 05:02
286 227 FLERON ANNICK 00:50:21 11917 05:02
287 156 MOREAU SABRINA 00:50:25 11901 05:03
288 1493 LONGUEVILLE DIDIER 00:50:28 11889 05:03
289 1310 BRANS ALAIN 00:50:39 11846 05:04
290 73 LESSAIN ERIC 00:50:40 11842 05:04
291 116 D HOEY CHRISTIAN 00:50:41 11838 05:04
292 29 THIRION PAULINE 00:50:48 11811 05:05
293 1625 DETHIER LUC 00:51:00 11765 05:06
294 112 CUYPERS JEAN PIERRE 00:51:03 11753 05:06
295 380 SPELGATTI RAPHAEL 00:51:06 11742 05:07
296 786 CUSTERS MICHEL 00:51:14 11711 05:07
297 614 ARNOLD PASCAL 00:51:18 11696 05:08
298 1545 SERVAIS NATHALIE 00:51:20 11688 05:08
299 392 DARCIS CLAUDE 00:51:22 11681 05:08
300 615 ARNOLD GERARD 00:51:23 11677 05:08
301 556 CULOT ALEXIS 00:51:27 11662 05:09
302 607 COLLIGNON MICHAEL 00:51:30 11650 05:09
303 1629 REYNDERS PATRICK 00:51:32 11643 05:09
304 1580 DE ROECK PATRICK 00:51:41 11609 05:10
305 150 REPPEN NICOLAS 00:51:43 11602 05:10
306 1532 LE TANTI TUM 00:51:46 11590 05:11
307 1626 DELWASSE JOEL 00:51:48 11583 05:11
308 447 RENARD ANTOINE 00:51:52 11568 05:11
309 219 EGGEN RENE 00:51:56 11553 05:12
310 118 DANIELS TOM 00:51:57 11550 05:12
311 1582 DE WINTER LAURENCE 00:51:59 11542 05:12
312 217 NOEL SERGE 00:51:59 11542 05:12
313 233 FERON JEAN-MARC 00:52:01 11535 05:12
314 1485 CENTI ERIC 00:52:03 11527 05:12
315 1425 PARISI DOMINIQUE 00:52:04 11524 05:12
316 634 DEFAWE CHRISTIAN 00:52:06 11516 05:13
317 1527 ANDRE CARSOS 00:52:08 11509 05:13
318 633 DEFAWE VERONIQUE 00:52:09 11505 05:13
319 1564 VENDERGEETEN CLAIRE 00:52:10 11502 05:13
320 1572 THIRY ANDRE 00:52:12 11494 05:13
321 1472 REFANO FREDERIC 00:52:16 11480 05:14
322 1494 JORISSEN PHILIPPE 00:52:21 11461 05:14
323 286 SCHMETZ LOUIS 00:52:24 11450 05:14
324 1444 AGUIAR CRISTOBAL 00:52:25 11447 05:15
325 124 VAN LAAR MARILYNE 00:52:27 11439 05:15
326 835 ULRICI ROLAND 00:52:29 11432 05:15
327 1492 RUZZICONI MARCO 00:52:30 11429 05:15
328 387 DELAIRESSE GILBERT 00:52:34 11414 05:15
329 1209 ZANELLA VITO 00:52:40 11392 05:16
330 221 WILKIN JEAN-MARC 00:52:41 11389 05:16
331 47 JULIN HUBERT 00:52:46 11371 05:17
332 1220 WAUTHIER J LUC 00:52:50 11356 05:17
333 1440 BOVY PHILIPPE 00:52:54 11342 05:17
334 24 MEYER FERDI 00:53:02 11314 05:18
335 1249 LEMARCHAND CHRISTIAN 00:53:11 11282 05:19
336 1449 CHACONRUIZ LUIS 00:53:22 11243 05:20
337 1531 CHACONRUIZ ANTHONY 00:53:23 11239 05:20
338 1445 BALTHAZAR MARC 00:53:26 11229 05:21
339 255 MOOR CLAUDINE 00:53:28 11222 05:21
340 358 SCHMETZ LUCIE 00:53:38 11187 05:22
341 279 NICASSIO SAM 00:53:40 11180 05:22
342 341 QUERRIN ALAIN 00:53:44 11166 05:22
343 1622 GOE DOMINIQUE 00:53:46 11159 05:23
344 1621 JOSE PATRICK 00:53:47 11156 05:23
345 183 BEBELMAN JEAN CLAUDE 00:53:55 11128 05:23
346 770 PARKS GEOFFREY 00:53:58 11118 05:24
347 1521 BELLI J PIERRE 00:53:59 11115 05:24
348 167 LARMINIER ANNE MARIE 00:54:01 11108 05:24
349 1598 MAMMO DIEGO 00:54:04 11097 05:24
350 1522 PACE CARLO 00:54:11 11074 05:25
351 300 DUCULOT MANON 00:54:12 11070 05:25
352 1497 BAIVIER JEAN 00:54:13 11067 05:25
353 356 MALTSCHENKOW CATHY 00:54:17 11053 05:26
354 1590 BERTHO PASCAL 00:54:19 11046 05:26
355 1536 DIGNEFFE MARC 00:54:21 11040 05:26
356 122 DAENE JEAN MARC 00:54:22 11036 05:26
357 812 DI PASQUALE JACKY 00:54:25 11026 05:27
358 1419 ROSSIGNOL BERNARD 00:54:29 11013 05:27
359 395 VAN DE VELDE JOZEF 00:54:34 10996 05:27
360 1257 DERWAEL ALAIN 00:54:39 10979 05:28
361 1515 BORGS MICHEL 00:54:41 10972 05:28
362 1592 JOLET FRANCOISE 00:54:48 10949 05:29
363 354 MAGNEE DOMINIQUE 00:54:51 10939 05:29
364 1442 REIP THOMAS 00:54:54 10929 05:29
365 1483 MARICHAL ROGER 00:54:58 10916 05:30
366 1482 VICKEVORST LUC 00:55:01 10906 05:30
367 109 CENNE RACHEL 00:55:10 10876 05:31
368 826 SCHIPPERS MICHEL 00:55:11 10873 05:31
369 1552 JORISSEN IVAN 00:55:13 10866 05:31
370 1206 FIC SEBASTIEN 00:55:21 10840 05:32
371 1570 RUTH ADELIN 00:55:38 10785 05:34
372 1596 MAMMOLI MARIELLA 00:56:00 10714 05:36
373 1599 DODET FABIAN 00:56:01 10711 05:36
374 1491 SPECA EMILIO 00:56:10 10682 05:37
375 1389 VAN ISACKER LAURIE 00:56:23 10641 05:38
376 717 GERKENS DANIEL 00:56:31 10616 05:39
377 1509 MILITELLO ANTOINE 00:56:35 10604 05:40
378 100 MELARD MICHEL 00:56:41 10585 05:40
379 96 DUPUIS SANDRINE 00:56:44 10576 05:40
380 184 PERSIA STEPHANIE 00:56:46 10570 05:41
381 185 PERSIA MICHEL 00:56:47 10566 05:41
382 814 KELLENS MARCEL 00:56:51 10554 05:41
383 632 JASPERS JOSEF 00:57:08 10502 05:43
384 70 WILLAMME MARIE FRANCE 00:57:10 10496 05:43
385 530 CLERFAYS HUBERT 00:57:17 10474 05:44
386 1454 MAES ERIC 00:57:29 10438 05:45
387 1396 LOWARD ANDRE 00:57:30 10435 05:45
388 1228 GILLET ERIC 00:57:32 10429 05:45
389 727 DELAVIGNETTE JEAN-PAUL 00:57:33 10426 05:45
390 193 THEUNISSEN ALAIN 00:57:36 10417 05:46
391 1593 BESEM AUDREY 00:57:40 10405 05:46
392 1539 COURTOIS PASCAL 00:57:44 10393 05:46
393 64 BORMANS CATHY 00:57:47 10384 05:47
394 1446 BROUWIER JOSEPH 00:57:53 10366 05:47
395 825 MIGNON STEPHANE 00:57:59 10348 05:48
396 1448 RENSON J YVES 00:58:05 10330 05:48
397 1426 AKGOZ ATIGE 00:58:07 10324 05:49
398 1502 RADEMAKER MARTINE 00:58:09 10318 05:49
399 1525 LOVENBERG GUY 00:58:13 10306 05:49
400 295 MOINEAU VICTOR 00:58:16 10297 05:50
401 1523 D HOOGE J LUC 00:58:19 10289 05:50
402 712 PEETERS JACQUES 00:58:20 10286 05:50
403 1548 JOST DAMIEN 00:58:29 10259 05:51
404 831 JOST ALAIN 00:58:31 10253 05:51
405 1484 PLISSON MURIEL 00:58:33 10248 05:51
406 !406 DOSSARD NON VISIBLE 00:58:38 10233 05:52
407 1506 JANS PETRA 00:58:40 10227 05:52
408 1504 AELBERS ELS 00:58:42 10221 05:52
409 1585 VRANKEN SONIA 00:58:44 10216 05:52
410 1584 VENTURELLI MAXIME 00:58:49 10201 05:53
411 1495 VANAUBEL SANDRINE 00:58:56 10181 05:54
412 1496 LENNERTS ERIC 00:58:58 10175 05:54
413 1073 PAROTTE SIMONE 00:59:00 10169 05:54
414 32 GERKENS CARINE 00:59:02 10164 05:54
415 1488 ALLES INGRID 00:59:04 10158 05:54
416 1538 COLETTE J FRANCOIS 00:59:13 10132 05:55
417 1222 TORFS CLAUDE 00:59:29 10087 05:57
418 759 LAMBRECHT PAUL 00:59:49 10031 05:59
419 1498 VAN LAAR CHRISTINE 01:00:08 9978 06:01
420 711 BERTONI JENNY 01:00:27 9926 06:03
421 1594 MUNOZ ELVIRE 01:00:41 9887 06:04
422 1623 PIERRAT SOPHIE 01:00:42 9885 06:04
423 1537 GOSIN PASCAL 01:00:45 9877 06:04
424 1417 DUCHESNE J CLAUDE 01:00:47 9871 06:05
425 401 D ACRI CLAUDIO 01:00:55 9850 06:05
426 1500 WEUSTENRAAD EDITH 01:00:56 9847 06:06
427 139 VANHERCK JEAN 01:00:59 9839 06:06
428 1630 HAUREGARD FLORENCE 01:01:01 9833 06:06
429 1588 RENIERS RAF 01:01:03 9828 06:06
430 1541 BOURGUIGNON PIERRE 01:01:04 9825 06:06
431 155 AUDIN MURIELLE 01:01:06 9820 06:07
432 216 MARTIN SOPHIE 01:01:10 9809 06:07
433 1227 MORTROUX PATRICK 01:01:21 9780 06:08
434 1624 IOVINE MARIA 01:01:40 9730 06:10
435 36 MUYTERS SERGE 01:01:58 9683 06:12
436 212 DERICHS PATRICIA 01:02:00 9677 06:12
437 1430 COOX THIERRY 01:02:27 9608 06:15
438 1429 JOLLINGS VERONIQUE 01:02:41 9572 06:16
439 700 SPADARO FILIPPO 01:02:47 9557 06:17
440 766 BRENNENRAEDTS FREDERIC 01:03:02 9519 06:18
441 1464 PERPETE A MARIE 01:03:05 9511 06:18
442 774 MOTTARD J PAUL 01:03:29 9451 06:21
443 1595 RUTILO ROSETTA 01:04:00 9375 06:24
444 1511 DESMET NATHALIE 01:04:04 9365 06:24
445 1362 HARDY HENRY 01:04:21 9324 06:26
446 1243 DEWANDRE MARY 01:04:39 9281 06:28
447 1242 LASSINE DIDIER 01:04:41 9276 06:28
448 1567 DUMONT HERVE 01:04:55 9243 06:29
449 1283 BRANAT ARLETTE 01:05:02 9226 06:30
450 881 BODEUS GODEFROID 01:05:10 9207 06:31
451 775 CORRADI M THERESE 01:05:13 9200 06:31
452 348 DEFAYS POL 01:05:36 9146 06:34
453 1443 SIMON ISABELLE 01:05:47 9121 06:35
454 1490 CASTIGLIONE VALERIO 01:05:56 9100 06:36
455 1284 LANGE CHRISTINE 01:06:16 9054 06:38
456 1528 HOUTEN MONIQUE 01:06:54 8969 06:41
457 1529 DEFOSSE J MARIE 01:06:57 8962 06:42
458 643 HEMROULLE FABIENNE 01:07:21 8909 06:44
459 728 LEMAIRE ANAIS 01:07:23 8904 06:44
460 1535 RASQUIN FRANCOISE 01:07:26 8898 06:45
461 899 VALESA A FRANCOISE 01:09:53 8586 06:59
462 536 MOTTARO GUY 01:10:35 8501 07:03
463 120 FETTWEIS GAELLE 01:10:49 8473 07:05
464 1416 RICCA JASON 01:11:05 8441 07:07
465 20 SCHIEPERS AUGUSTINE 01:11:58 8337 07:12